Location: Couloutre
(47.4081°N, 3.2259°E)
Time: 08:43:25
(UTC+00:00)

STARLINK-1036 - Pass Details

Date: 27 February 2020
Orbit: 549 x 551 km, 53.0° (Epoch: 01 April)

Event Time Altitude Azimuth Distance (km) Brightness Sun altitude
Rises 18:37:12 0° 261° (W) 2,714 9.0 -12.4°
Reaches altitude 10° 18:39:29 10° 267° (W) 1,823 7.8 -12.8°
Maximum altitude 18:43:31 49° 343° (NNW) 711 4.3 -13.5°
Enters shadow 18:46:31 17° 54° (NE) 1,437 5.3 -14.0°
